TimePDT,TemperatureF,Dew PointF,Humidity,Sea Level PressureIn,VisibilityMPH,Wind Direction,Wind SpeedMPH,Gust SpeedMPH,PrecipitationIn,Events,Conditions,WindDirDegrees,DateUTC
12:15 AM,62.6,51.8,68,29.98,10.0,South,3.5,-,N/A,,Clear,180,2013-05-13 07:15:00
12:35 AM,62.6,51.8,68,29.97,10.0,Calm,Calm,-,N/A,,Clear,0,2013-05-13 07:35:00
12:55 AM,59.0,51.8,77,29.97,10.0,Calm,Calm,-,N/A,,Mostly Cloudy,0,2013-05-13 07:55:00
1:15 AM,60.8,51.8,72,29.97,10.0,SW,3.5,-,N/A,,Mostly Cloudy,220,2013-05-13 08:15:00
1:35 AM,60.8,51.8,72,29.97,10.0,SSW,4.6,-,N/A,,Scattered Clouds,200,2013-05-13 08:35:00
1:55 AM,60.8,51.8,72,29.97,10.0,South,5.8,-,N/A,,Scattered Clouds,190,2013-05-13 08:55:00
2:15 AM,60.8,50.0,68,29.97,10.0,South,6.9,-,N/A,,Scattered Clouds,190,2013-05-13 09:15:00
2:35 AM,60.8,51.8,72,29.97,10.0,South,6.9,-,N/A,,Scattered Clouds,170,2013-05-13 09:35:00
2:55 AM,60.8,50.0,68,29.97,10.0,South,5.8,-,N/A,,Scattered Clouds,180,2013-05-13 09:55:00
3:15 AM,60.8,50.0,68,29.96,10.0,South,4.6,-,N/A,,Scattered Clouds,190,2013-05-13 10:15:00
3:35 AM,59.0,50.0,72,29.97,10.0,SSW,4.6,-,N/A,,Scattered Clouds,200,2013-05-13 10:35:00
3:55 AM,59.0,50.0,72,29.97,10.0,South,5.8,-,N/A,,Scattered Clouds,190,2013-05-13 10:55:00
4:15 AM,59.0,50.0,72,29.97,10.0,SSW,5.8,-,N/A,,Scattered Clouds,210,2013-05-13 11:15:00
4:35 AM,59.0,51.8,77,29.97,10.0,South,6.9,-,N/A,,Scattered Clouds,170,2013-05-13 11:35:00
4:55 AM,59.0,50.0,72,29.97,10.0,South,4.6,-,N/A,,Scattered Clouds,190,2013-05-13 11:55:00
5:15 AM,59.0,50.0,72,29.97,10.0,South,8.1,-,N/A,,Mostly Cloudy,170,2013-05-13 12:15:00
5:35 AM,59.0,50.0,72,29.97,10.0,South,9.2,-,N/A,,Overcast,190,2013-05-13 12:35:00
5:55 AM,59.0,50.0,72,29.98,10.0,South,6.9,-,N/A,,Overcast,180,2013-05-13 12:55:00
6:15 AM,59.0,48.2,67,29.98,10.0,SSW,3.5,-,N/A,,Overcast,200,2013-05-13 13:15:00
6:35 AM,59.0,48.2,67,29.98,10.0,South,5.8,-,N/A,,Overcast,170,2013-05-13 13:35:00
6:55 AM,59.0,48.2,67,29.99,10.0,South,3.5,-,N/A,,Overcast,190,2013-05-13 13:55:00
7:15 AM,59.0,48.2,67,29.99,10.0,South,3.5,-,N/A,Rain,Light Rain,190,2013-05-13 14:15:00
7:35 AM,59.0,50.0,72,29.99,10.0,SSW,3.5,-,N/A,,Overcast,200,2013-05-13 14:35:00
7:55 AM,59.0,50.0,72,29.99,10.0,South,4.6,-,N/A,,Overcast,190,2013-05-13 14:55:00
8:15 AM,59.0,50.0,72,29.98,10.0,South,3.5,-,N/A,,Overcast,190,2013-05-13 15:15:00
8:35 AM,60.8,50.0,68,29.98,10.0,SSW,4.6,-,N/A,,Overcast,200,2013-05-13 15:35:00
8:55 AM,60.8,50.0,68,29.98,10.0,South,9.2,-,N/A,,Overcast,190,2013-05-13 15:55:00
9:15 AM,60.8,50.0,68,29.98,10.0,SSW,6.9,-,N/A,,Mostly Cloudy,210,2013-05-13 16:15:00
9:35 AM,60.8,50.0,68,29.97,10.0,SSW,5.8,-,N/A,,Mostly Cloudy,200,2013-05-13 16:35:00
9:55 AM,60.8,50.0,68,29.97,10.0,SSW,6.9,-,N/A,,Overcast,210,2013-05-13 16:55:00
10:15 AM,60.8,50.0,68,29.97,10.0,South,8.1,-,N/A,,Overcast,190,2013-05-13 17:15:00
10:35 AM,60.8,50.0,68,29.96,10.0,South,10.4,-,N/A,,Overcast,180,2013-05-13 17:35:00
10:55 AM,62.6,50.0,63,29.96,10.0,South,8.1,-,N/A,,Overcast,180,2013-05-13 17:55:00
11:15 AM,60.8,50.0,68,29.96,10.0,South,9.2,-,N/A,,Overcast,180,2013-05-13 18:15:00
11:35 AM,60.8,50.0,68,29.96,10.0,South,12.7,17.3,N/A,Rain,Light Rain,180,2013-05-13 18:35:00
11:55 AM,60.8,51.8,72,29.95,10.0,South,9.2,-,N/A,Rain,Light Rain,180,2013-05-13 18:55:00
12:15 PM,60.8,48.2,63,29.94,10.0,SW,5.8,-,N/A,,Overcast,220,2013-05-13 19:15:00
12:35 PM,60.8,46.4,59,29.94,10.0,SW,8.1,-,N/A,,Overcast,220,2013-05-13 19:35:00
1:35 PM,59.0,46.4,63,29.93,10.0,WSW,4.6,16.1,N/A,Rain,Light Rain,240,2013-05-13 20:35:00
1:55 PM,55.4,46.4,72,29.93,10.0,SW,3.5,-,N/A,Rain,Light Rain,230,2013-05-13 20:55:00
2:15 PM,55.4,50.0,82,29.92,10.0,SSW,3.5,-,N/A,Rain,Rain,210,2013-05-13 21:15:00
2:35 PM,53.6,50.0,88,29.93,7.0,SW,4.6,-,N/A,Rain,Light Rain,230,2013-05-13 21:35:00
2:55 PM,51.8,50.0,94,29.94,10.0,SSW,8.1,-,N/A,Rain,Rain,210,2013-05-13 21:55:00
3:15 PM,51.8,50.0,94,29.93,4.0,SSW,6.9,-,N/A,Rain,Rain,210,2013-05-13 22:15:00
3:35 PM,51.8,51.8,100,29.92,7.0,South,8.1,-,N/A,Rain,Rain,190,2013-05-13 22:35:00
3:55 PM,51.8,51.8,100,29.92,5.0,South,8.1,-,N/A,Rain,Rain,170,2013-05-13 22:55:00
4:35 PM,51.8,51.8,100,29.94,10.0,South,9.2,-,N/A,Rain,Rain,170,2013-05-13 23:35:00
5:15 PM,51.8,51.8,100,29.93,10.0,SSW,4.6,-,N/A,,Overcast,210,2013-05-14 00:15:00
5:35 PM,51.8,51.8,100,29.94,10.0,SW,5.8,-,N/A,,Overcast,220,2013-05-14 00:35:00
5:55 PM,51.8,51.8,100,29.94,10.0,SW,5.8,-,N/A,,Overcast,220,2013-05-14 00:55:00
6:15 PM,51.8,51.8,100,29.93,10.0,SSW,6.9,-,N/A,,Overcast,210,2013-05-14 01:15:00
6:35 PM,51.8,51.8,100,29.91,10.0,SSW,4.6,-,N/A,,Overcast,200,2013-05-14 01:35:00
6:55 PM,51.8,51.8,100,29.93,10.0,SSW,4.6,-,N/A,,Overcast,210,2013-05-14 01:55:00
7:15 PM,51.8,51.8,100,29.94,10.0,SW,3.5,-,N/A,,Overcast,220,2013-05-14 02:15:00
7:35 PM,51.8,51.8,100,29.92,10.0,Calm,Calm,-,N/A,,Overcast,0,2013-05-14 02:35:00
7:55 PM,51.8,51.8,100,29.92,10.0,SSW,3.5,-,N/A,,Overcast,200,2013-05-14 02:55:00
8:15 PM,51.8,51.8,100,29.92,10.0,SSW,4.6,-,N/A,Rain,Rain,210,2013-05-14 03:15:00
8:35 PM,50.0,50.0,100,29.92,10.0,SSW,8.1,-,N/A,Rain,Light Rain,200,2013-05-14 03:35:00
8:55 PM,50.0,44.6,82,29.95,10.0,West,10.4,16.1,N/A,Rain,Rain,280,2013-05-14 03:55:00
9:15 PM,48.2,44.6,87,29.96,10.0,West,4.6,-,N/A,Rain,Light Rain,260,2013-05-14 04:15:00
9:35 PM,48.2,48.2,100,29.96,10.0,SW,5.8,-,N/A,,Overcast,220,2013-05-14 04:35:00
9:55 PM,48.2,48.2,100,29.96,10.0,South,4.6,-,N/A,,Overcast,180,2013-05-14 04:55:00
10:15 PM,48.2,48.2,100,29.96,10.0,South,5.8,-,N/A,,Overcast,180,2013-05-14 05:15:00
10:35 PM,50.0,50.0,100,29.96,10.0,SSW,3.5,-,N/A,,Overcast,210,2013-05-14 05:35:00
10:55 PM,50.0,50.0,100,29.96,10.0,SSW,12.7,20.7,N/A,,Overcast,200,2013-05-14 05:55:00
11:15 PM,51.8,44.6,76,29.97,10.0,SW,6.9,-,N/A,,Mostly Cloudy,220,2013-05-14 06:15:00
11:35 PM,51.8,42.8,71,29.99,10.0,SW,8.1,-,N/A,,Overcast,230,2013-05-14 06:35:00
11:55 PM,51.8,41.0,67,30.00,10.0,SW,12.7,21.9,N/A,,Overcast,230,2013-05-14 06:55:00